Spokane, WA
on Saturday, November 10, 2012

Saturday
Previous Day Next Day
Daily Summary
 ActualAverageRecord
Temperature
Mean Temperature °F 38°F  
Max Temperature 31°F 44°F 61°F (1953)
Min Temperature 21°F 31°F 6°F (2000)
Degree Days
Heating Degree Days 39 27  
Month to date heating degree days 222 255  
Since 1 July heating degree days 828 1043  
Cooling Degree Days 0 0  
Month to date cooling degree days 0 0  
Year to date cooling degree days 535 450  
Moisture
Dew Point 20°F   
Average Humidity 78    
Maximum Humidity 92    
Minimum Humidity 63    
Precipitation
Precipitation T in 0.08 in 1.02 in (1983)
Month to date precipitation 0.72 0.69  
Year to date precipitation 16.22 12.65  
Snow
Snow T in 0.20 in 3.30 in (1945)
Month to date snowfall 2.9 1.1  
Since 1 July snowfall 2.9 1.2  
Since 1 September snowfall 2.9 1.2  
Snow Depth 2.00 in   
Wind
Wind Speed 5 mph   
Max Wind Speed 10 mph   
Max Gust Speed 13 mph   
Visibility 10 miles   
Events Snow   

Key: T is trace of precipitation, MM is missing value
Source: NWS Daily Summary
Time(PST)TemperatureDew PointHumidity Pressure Visibility Wind DirectionWind SpeedGust SpeedPrecipitationEvents Conditions
12:53 AM 25.0°F 21.9°F 88% 29.93 in 9.0 miles North 3.5 mph - 0.00 in Snow Light Snow
1:53 AM 26.1°F 21.9°F 84% 29.95 in 9.0 miles North 4.6 mph - 0.00 in Snow Light Snow
2:53 AM 25.0°F 21.9°F 88% 29.95 in 10.0 miles North 5.8 mph - 0.00 in   Overcast
3:53 AM 24.1°F 21.0°F 88% 29.97 in 10.0 miles ENE 4.6 mph - N/A   Scattered Clouds
4:53 AM 21.9°F 19.0°F 89% 29.99 in 10.0 miles North 3.5 mph - N/A   Scattered Clouds
5:53 AM 21.9°F 19.0°F 89% 29.99 in 10.0 miles Calm Calm - N/A   Scattered Clouds
6:53 AM 21.9°F 19.0°F 89% 30.01 in 10.0 miles Calm Calm - N/A   Scattered Clouds
7:53 AM 23.0°F 19.0°F 85% 30.02 in 10.0 miles Calm Calm - N/A   Mostly Cloudy
8:53 AM 25.0°F 19.9°F 81% 30.04 in 10.0 miles Calm Calm - N/A   Mostly Cloudy
9:53 AM 26.1°F 19.9°F 78% 30.06 in 10.0 miles NNE 4.6 mph - N/A   Mostly Cloudy
10:53 AM 27.0°F 19.0°F 72% 30.07 in 10.0 miles North 6.9 mph - N/A   Mostly Cloudy
11:53 AM 28.0°F 19.0°F 69% 30.07 in 10.0 miles NNE 6.9 mph - N/A   Scattered Clouds
12:53 PM 28.9°F 19.0°F 67% 30.08 in 10.0 miles North 4.6 mph - N/A   Scattered Clouds
1:53 PM 30.0°F 19.0°F 64% 30.09 in 10.0 miles North 4.6 mph - N/A   Scattered Clouds
2:53 PM 30.0°F 19.0°F 64% 30.11 in 10.0 miles NW 3.5 mph - N/A   Scattered Clouds
3:53 PM 28.9°F 19.9°F 69% 30.14 in 10.0 miles WSW 5.8 mph - N/A   Mostly Cloudy
4:53 PM 26.1°F 19.9°F 78% 30.16 in 10.0 miles WSW 5.8 mph - N/A   Mostly Cloudy
5:53 PM 26.1°F 21.0°F 81% 30.17 in 10.0 miles SSW 4.6 mph - N/A   Overcast
6:53 PM 25.0°F 19.0°F 78% 30.18 in 10.0 miles South 5.8 mph - N/A   Mostly Cloudy
7:53 PM 24.8°F 19.4°F 80% 30.09 in 10.0 miles South 4.6 mph - N/A   Mostly Cloudy
8:53 PM 24.1°F 19.0°F 81% 30.19 in 10.0 miles SSW 5.8 mph - N/A   Scattered Clouds
9:53 PM 24.1°F 19.0°F 81% 30.20 in 10.0 miles SSW 8.1 mph - N/A   Scattered Clouds
10:53 PM 24.1°F 19.9°F 84% 30.21 in 10.0 miles SW 9.2 mph - N/A   Mostly Cloudy
11:31 PM 24.8°F 19.4°F 80% 30.14 in 10.0 miles SW 9.2 mph - N/A   Mostly Cloudy
11:53 PM 25.0°F 19.9°F 81% 30.22 in 10.0 miles SW 9.2 mph - N/A   Scattered Clouds
Moon Phase
Nov. 10 Nov. 13 Nov. 20 Nov. 28 Dec. 06
Sunrise:06:48 AM (PST) Moon Rise:02:45 AM (PST)11/10
Sunset:04:18 PM (PST) Moon Set:02:20 PM (PST)11/10

Copyright © 2014 The Weather Underground, Inc.